Flag for France Weather past 2 weeks in Villeurbanne, France

Now
63 °F

Clear.


Feels Like: 63 °F
Forecast: 66 / 79 °F
Wind: No wind

Location: Lyon / Bron

Current Time: Jul 25, 2014 at 6:08:10 AM

Latest Report: Jul 25, 2014 at 5:30 AM


Visibility: N/A

Pressure: 29.89 "Hg

Humidity: 83%

Dew point: 57 °F

Location of VilleurbanneLocation

Historic Weather in Villeurbanne — Graph

°F

Villeurbanne temperature yesterday

Maximum temperature yesterday: 84 °F (at 5:00 PM)
Minimum temperature yesterday: 64 °F (at 6:30 AM)
Average temperature yesterday: 75 °F

Past Weeks' High & Low Weather Summary

 TemperatureHumidityPressure
High93 °F (Jul 17, 6:00 PM)94% (Jul 10, 5:00 AM)30.15 "Hg (Jul 10, 5:00 AM)
Low54 °F (Jul 10, 5:00 AM)23% (Jul 17, 7:00 PM)29.80 "Hg (Jul 19, 7:00 PM)
Average70 °F68%30.00 "Hg
* Reported Jul 10 5:00 AM — Jul 25 5:00 AM, Villeurbanne, Weather by CustomWeather, © 2014

Note: Actual official high and low records may vary slightly from our data, if they occured in-between our weather recording intervals... More about our weather records

Advertising

Villeurbanne weather history for previous 24 hours

 ConditionsComfort  
Time TempWeatherWind HumidityBarometerVisibility
5:00 AM
Jul 25
63 °FClear.2 mph88%29.89 "HgN/A
4:30 AM63 °FClear.2 mph88%29.89 "HgN/A
4:00 AM63 °FClear.2 mph88%29.92 "HgN/A
3:30 AM64 °FClear.3 mph83%29.92 "HgN/A
3:00 AM64 °FClear.2 mph83%29.92 "HgN/A
2:30 AM64 °FClear.2 mph83%29.92 "HgN/A
2:00 AM66 °FClear.3 mph83%29.92 "HgN/A
1:30 AM66 °FClear.2 mph83%29.92 "HgN/A
1:00 AM66 °FClear.2 mph83%29.92 "HgN/A
12:30 AM68 °FClear.2 mph78%29.92 "HgN/A
12:00 AM68 °FClear.No wind73%29.92 "HgN/A
11:30 PM
Jul 24
68 °FClear.No wind73%29.92 "HgN/A
11:00 PM70 °FClear.No wind69%29.92 "HgN/A
10:30 PM72 °FClear.No wind61%29.92 "HgN/A
10:00 PM73 °FClear.2 mph61%29.89 "HgN/A
9:30 PM75 °FClear.3 mph50%29.89 "HgN/A
9:00 PM77 °FClear.3 mph47%29.89 "HgN/A
8:30 PM79 °FClear.6 mph45%29.89 "HgN/A
8:00 PM81 °FClear.9 mph39%29.86 "HgN/A
7:30 PM82 °FClear.10 mph42%29.86 "HgN/A
7:00 PM82 °FClear.9 mph42%29.86 "HgN/A
6:30 PM82 °FClear.9 mph45%29.86 "HgN/A
6:00 PM84 °FClear.10 mph40%29.86 "HgN/A
5:30 PM84 °FClear.10 mph43%29.86 "HgN/A
5:00 PM84 °FClear.9 mph40%29.86 "HgN/A
4:30 PM82 °FClear.10 mph42%29.86 "HgN/A
4:00 PM82 °FClear.10 mph42%29.86 "HgN/A
3:30 PM82 °FClear.9 mph42%29.86 "HgN/A
3:00 PM82 °FClear.13 mph42%29.86 "HgN/A
2:30 PM82 °FClear.14 mph37%29.86 "HgN/A
2:00 PM82 °FScattered clouds.12 mph45%29.89 "HgN/A
1:30 PM82 °FPassing clouds.10 mph42%29.89 "HgN/A
1:00 PM81 °FScattered clouds.10 mph45%29.89 "HgN/A
12:30 PM81 °FPassing clouds.8 mph45%29.89 "HgN/A
12:00 PM79 °FClear.8 mph54%29.89 "HgN/A
11:30 AM79 °FClear.5 mph54%29.89 "HgN/A
11:00 AM77 °FClear.8 mph57%29.89 "HgN/A
10:30 AM75 °FClear.8 mph61%29.89 "HgN/A
10:00 AM75 °FClear.8 mph61%29.89 "HgN/A
9:30 AM73 °FClear.8 mph65%29.89 "HgN/A
9:00 AM72 °FClear.5 mph69%29.89 "HgN/A
8:30 AM72 °FClear.3 mph69%29.89 "HgN/A
7:30 AM66 °FClear.No wind88%29.86 "HgN/A
7:00 AM64 °FClear.No wind88%29.86 "HgN/A
6:30 AM64 °FClear.No wind88%29.86 "HgN/A
6:00 AM66 °FClear.2 mph83%29.86 "HgN/A
Weather by CustomWeather, © 2014

See weather overviewHow to use our weather pages